Location: Elaina
(34.1445°N, 106.7742°W)
Time: 21:11:35
(UTC+00:00)

STARLINK-36090 - Pass Details

Date: 11 December 2025
Orbit: 483 x 484 km, 43.0° (Epoch: 20 January)

Event Time Altitude Azimuth Distance (km) Brightness Sun altitude
Exits shadow 11:17:09 12° 114° (ESE) 1,517 5.6 -33.5°
Drops below altitude 10° 11:17:52 10° 104° (ESE) 1,650 5.9 -33.3°
Enters shadow 12:20:58 -60° 240° (WSW) 11,605 9.3 -20.5°
Maximum altitude 12:54:35 87° 327° (NNW) 485 2.2 -13.8°
